Weather History for Holloman AFB, NM

Change the Weather History Date:

Monday, February 18, 2013

  Actual Average Record
Temperature  
Mean Temperature 46 °F -  
Max Temperature 62 °F 59 °F 74 °F (2014)
Min Temperature 31 °F 31 °F 23 °F (2008)
Degree Days  
Heating Degree Days 18    
Moisture  
Dew Point 3 °F    
Average Humidity 16    
Maximum Humidity 28    
Minimum Humidity 8    
Precipitation  
Precipitation 0.00 in - - ()
Sea Level Pressure  
Sea Level Pressure 29.89 in    
Wind  
Wind Speed 6 mph (NNW)    
Max Wind Speed 12 mph    
Max Gust Speed 20 mph    
Visibility 9 miles    
Events      
Averages and records for this station are not official NWS values.
T = Trace of Precipitation, MM = Missing Value Source: NWS Daily Summary

Daily Weather History Graph

Daily Weather History Graph

Search for Another Location

Airport:

Trip Planner

Search our weather history database for the weather conditions in past years. The results will help you decide how hot, cold, wet, or windy it might be!

Date:

Astronomy

Feb. 18, 2013 Rise Set
Actual Time 6:44 AM MST 5:52 PM MST
Civil Twilight 6:19 AM MST 6:17 PM MST
Nautical Twilight 5:50 AM MST 6:46 PM MST
Astronomical Twilight 5:21 AM MST 7:15 PM MST
Moon 11:49 AM MST (2/18) 1:17 AM MST (2/18)
Length of Visible Light 11h 58m
Length of Day
11h 08m
First Quarter, 59% of the Moon is Illuminated
Feb 18
First Quarter
Feb 25
Full
Mar 4
Last Quarter
Mar 11
New
Mar 19
First Quarter

Hourly Weather History & Observations

Time (MST) Temp. Windchill Dew Point Humidity Pressure Visibility Wind Dir Wind Speed Gust Speed Precip Events Conditions
12:03 AM 53.6 °F - 3.2 °F 13% 29.86 in 4.0 mi Variable 2.3 mph - N/A   Haze
12:18 AM 51.8 °F - 3.2 °F 14% 29.86 in 6.0 mi WNW 6.9 mph 19.6 mph N/A   Haze
12:33 AM 51.8 °F - 3.2 °F 14% 29.87 in 10.0 mi NW 6.9 mph - N/A   Clear
12:43 AM 51.8 °F - 3.2 °F 14% 29.87 in 7.0 mi NW 8.1 mph - N/A   Clear
12:48 AM 53.6 °F - 3.2 °F 13% 29.87 in 5.0 mi NW 5.8 mph - N/A   Haze
12:58 AM 52.9 °F - 3.4 °F 13% 29.75 in 4.0 mi WNW 6.9 mph - N/A   Haze
1:58 AM 45.0 °F - 3.7 °F 18% 29.78 in 3.0 mi South 2.3 mph - N/A   Haze
2:18 AM 42.8 °F 38.0 °F 3.2 °F 19% 29.89 in 5.0 mi NNW 8.1 mph - N/A   Haze
2:38 AM 41.0 °F 36.4 °F 3.2 °F 21% 29.90 in 10.0 mi NNW 6.9 mph - N/A   Clear
2:58 AM 35.1 °F 30.1 °F 1.2 °F 24% 29.81 in 10.0 mi NNE 5.8 mph - N/A   Clear
3:58 AM 33.8 °F 28.6 °F 1.6 °F 26% 29.82 in 10.0 mi North 5.8 mph - N/A   Clear
4:58 AM 34.9 °F 29.9 °F 1.6 °F 25% 29.82 in 10.0 mi North 5.8 mph - N/A   Clear
5:58 AM 36.5 °F 31.8 °F 2.7 °F 24% 29.87 in 10.0 mi NW 5.8 mph - N/A   Clear
6:58 AM 31.3 °F 24.7 °F 1.0 °F 28% 29.91 in 10.0 mi ENE 6.9 mph - N/A   Clear
7:58 AM 37.0 °F - 3.9 °F 25% 29.98 in 10.0 mi WNW 2.3 mph - N/A   Clear
8:58 AM 51.1 °F - 6.4 °F 16% 29.94 in 10.0 mi NNW 6.9 mph - N/A   Clear
9:58 AM 55.0 °F - 6.8 °F 14% 29.95 in 10.0 mi NW 11.5 mph - N/A   Clear
10:58 AM 58.1 °F - 5.9 °F 12% 29.96 in 10.0 mi NNW 9.2 mph - N/A   Clear
11:58 AM 59.2 °F - 4.8 °F 11% 29.93 in 10.0 mi WNW 10.4 mph - N/A   Clear
12:58 PM 60.4 °F - 3.7 °F 10% 29.90 in 10.0 mi WNW 11.5 mph - N/A   Clear
1:58 PM 61.2 °F - 1.9 °F 9% 29.89 in 10.0 mi NW 9.2 mph - N/A   Clear
2:58 PM 62.1 °F - 2.1 °F 9% 29.90 in 10.0 mi NW 6.9 mph - N/A   Clear
3:58 PM 61.7 °F - -0.2 °F 8% 29.92 in 10.0 mi Variable 4.6 mph - N/A   Clear
4:58 PM 61.0 °F - 1.8 °F 9% 29.91 in 10.0 mi WSW 2.3 mph - N/A   Clear
5:58 PM 56.8 °F - 1.8 °F 11% 29.92 in 10.0 mi ESE 4.6 mph - N/A   Clear
6:58 PM 51.6 °F - 0.7 °F 12% 29.95 in 10.0 mi East 5.8 mph - N/A   Clear
7:58 PM 48.9 °F - 1.8 °F 14% 29.95 in 10.0 mi ESE 4.6 mph - N/A   Clear
8:58 PM 45.5 °F 43.2 °F 3.2 °F 18% 29.94 in 10.0 mi SE 4.6 mph - N/A   Clear
9:58 PM 49.1 °F - 0.7 °F 14% 29.92 in 10.0 mi ESE 9.2 mph - N/A   Clear
10:58 PM 44.6 °F 43.1 °F -0.0 °F 16% 29.92 in 10.0 mi SE 3.5 mph - N/A   Clear
11:58 PM 42.3 °F 37.3 °F 2.1 °F 19% 29.94 in 10.0 mi South 8.1 mph - N/A   Clear